轨道通信卫星FM34星 (ORBCOMM FM34)

导读 | 豆包AI

ORBCOMM FM 34于1999年12月4日发射,归属ORBCOMM低地球轨道卫星通信系统。该系统由美加联合打造,主打全球窄带M2M与物联网服务,依托VHF/UHF频段实现低成本短数据传输。作为星座组网卫星,它支持资产监测、车辆定位等业务,服务于交通、环保等领域,是早期低轨卫星物联网应用实践的重要组成部分。

基本信息
目录编号:
25986
目录名称:
ORBCOMM FM 34
国际标识:
1999-065G
轨道中心:
EARTH
卫星名称:
轨道通信卫星FM34星
卫星全名:
轨道通信卫星FM34星 (ORBCOMM FM34)
卫星状态:
在轨 (已飞行9596 天)
发射日期:
1999-12-04 UTC
国别 :
(ORB)
星等 :
--
轨道信息
数据来源 国际轨道数据
星历时间: 2026-03-13T20:42:02+0800
11小时前
查看轨道信息
半长轴: 7143.933km
偏心率: 0.0003534
轨道倾角: 45.038°
近地点辐角 248.453°
升交点赤经 261.406°
平近点角 111.594°
近地点: 763.271km
远地点: 768.321km
周期: 100.153分钟
每日圈数: 14.377942
详细信息
固有亮度:
8
最大亮度:
6.2
平衡模式:
三轴稳定
覆盖范围:
全球
运营商:
轨道通信公司
运营商所在国:
美国
制造商(研发单位):
轨道ATK公司
制造商所在国:
美国
使用方式:
暂无
卫星简介
轨道通信FM(Orbcomm FM)是一系列低地球轨道通信卫星,由美国卫星通信公司 Orbcomm运营。 截至2015年12月,已有63颗此类卫星绕地球运行。该卫星已退役。
2D轨道图
3D轨道图
轨道高度分析图
轨道倾角分析图
轨道综合分析图
查看轨道综合分析图